Cloud_Cover
3 3 3 1 0 0 0 0 0 0 0 0 0 0 0 0 0 0 0 0 5 28 12 20 27 100 99 24 14 4 26 91
1 4 4 0 0 0 0 0 0 0 0 0 0 0 0 0 2 1 0 0 6 3 82 100 98 46 85 97 100 100 50 24
5 5 5 5 5 0 0 1 0 0 0 0 4 0 0 0 0 0 0 1 6 6 98 97 83 99 98 98 100 100 100 100
5 0 0 0 2 3 5 5 0 0 0 0 0 0 0 0 1 2 1 15 30 63 94 100 100 100 100 100 100 100 100 100
8 5 5 3 5 5 5 3 1 0 0 0 5 4 3 5 5 5 5 5 10 36 96 100 100 100 100 100 100 100 100 100
5 5 1 0 1 1 0 5 2 0 0 0 0 3 5 5 5 5 26 32 16 48 100 100 100 100 100 100 100 100 100 100
5 5 5 3 0 0 0 0 0 0 0 0 0 5 5 5 5 5 12 58 74 83 99 100 100 100 100 100 100 100 100 100
5 1 4 5 0 0 0 0 0 0 0 0 0 5 5 5 5 5 11 10 28 54 97 95 100 100 100 100 100 100 100 100
5 5 5 5 0 0 0 0 0 0 2 0 0 5 5 5 5 28 46 99 100 100 100 100 100 100 100 100 100 99 99 100
6 5 5 5 0 0 0 0 0 0 5 0 0 4 5 5 16 47 91 96 62 99 100 100 100 100 100 100 99 100 100 100
92 10 1 0 0 0 0 0 0 4 2 0 0 5 5 9 26 70 82 64 86 100 99 100 100 100 100 100 100 100 100 100
5 0 0 0 0 1 1 0 1 5 1 3 5 5 5 13 58 80 91 84 99 99 83 88 100 100 100 69 100 100 100 100
1 0 0 4 0 3 0 3 5 8 37 41 5 5 11 78 90 80 83 81 88 100 80 94 100 90 94 79 100 100 100 100
5 2 5 5 5 5 1 5 10 46 33 5 5 13 81 90 87 75 94 94 89 100 85 91 100 90 97 94 100 100 100 100
5 5 5 5 5 1 5 6 32 9 5 5 5 66 66 80 86 88 93 96 93 97 87 99 100 99 100 100 100 100 100 100
5 5 3 5 4 5 5 23 5 5 5 5 6 68 32 79 91 86 86 97 93 97 88 98 99 100 99 100 100 100 100 100
5 5 5 5 5 5 16 5 5 5 5 5 14 62 74 80 95 94 72 96 96 100 100 100 100 100 100 100 100 99 100 100
6 5 5 5 5 5 5 5 5 5 5 5 53 87 83 78 100 77 80 98 99 100 99 100 100 100 100 100 100 98 100 100
61 5 5 5 5 5 5 5 5 5 5 5 88 89 78 97 100 94 85 100 100 100 100 100 98 100 100 100 100 100 100 100